Location: Cossonay
(46.5833°N, 6.4167°E)
Time: 22:32:42
(UTC+00:00)

CBERS-1 - Pass Details

Date: 04 October 2020
Orbit: 770 x 777 km, 98.6° (Epoch: 22 October)

Event Time Altitude Azimuth Distance (km) Brightness Sun altitude
Rises 01:47:38 0° 16° (NNE) 3,259 8.0 -37.6°
Reaches altitude 10° 01:49:58 10° 19° (NNE) 2,329 7.1 -37.3°
Enters shadow 01:52:02 25° 24° (NNE) 1,542 6.0 -37.0°
